Regional Weather Roundup
Issued by NWS

Home | Current Version | Previous Version | Text Only | Print | Product List | Glossary Off
Versions: 1 2 3 4 5 6 7 8 9 10 11 12 13 14 15 16 17 18 19 20 21 22 23 24 25 26 27 28 29 30 31 32 33 34 35 36 37 38 39 40 41 42 43 44 45 46 47 48 49 50

664
ASUS43 KDMX 232106
RWRIA

WEATHER ROUNDUP FOR IOWA
NATIONAL WEATHER SERVICE DES MOINES IA
300 PM CST MON JAN 23 2017

NOTE: "FAIR" INDICATES FEW OR NO CLOUDS BELOW 12,000 FEET WITH NO
SIGNIFICANT WEATHER AND/OR OBSTRUCTIONS TO VISIBILITY.

* - THESE STATIONS ARE NOT NWS STATIONS...THUS NOT UNDER NWS
QUALITY CONTROL.  THEY ALSO DO NOT REPORT WEATHER SUCH
AS PRECIPITATION OR FOG.

IAZ001>003-012>014-020>022-031>034-043>046-232200-
   NORTHWEST IOWA

CITY           SKY/WX    TMP DP  RH WIND       PRES   REMARKS
CARROLL *      CLOUDY    34  30  86 CALM      29.82S
CHEROKEE *     CLOUDY    32  31  95 CALM      29.82S
DENISON *      CLOUDY    32  30  93 CALM      29.80S
LE MARS *      CLOUDY    32  28  86 S5        29.83S WCI  27
ORANGE CITY *  CLOUDY    30  28  93 CALM      29.81R
SHELDON *      CLOUDY    30  32 100 CALM      29.79S FOG
SIOUX CITY     CLOUDY    34  28  79 SE7       29.82S WCI  28
SPENCER        CLOUDY    32  30  92 CALM      29.82S
STORM LAKE *   PTSUNNY   32  28  86 CALM      29.81S
$$

IAZ055>058-069>071-079>083-090>094-232200-
   SOUTHWEST IOWA

CITY           SKY/WX    TMP DP  RH WIND       PRES   REMARKS
ATLANTIC *     CLOUDY    32  30  93 CALM      29.83S
AUDUBON *      CLOUDY    34  28  80 CALM      29.83S
CLARINDA *     CLOUDY    34  30  86 CALM      29.86F
COUNCIL BLFS * CLOUDY    34  32  93 SE5       29.82F WCI  30
CRESTON *      CLOUDY    32  30  93 N6        29.84S WCI  26
HARLAN  *      CLOUDY    32  32 100 CALM      29.85F
LAMONI         CLOUDY    33  29  85 N6        29.82F WCI  28
RED OAK *      CLOUDY    34  28  80 CALM      29.84F
SHENANDOAH *   CLOUDY    34  30  86 NE5       29.85F WCI  30
$$

IAZ047>049-059>061-072>074-084-232200-
   CENTRAL IOWA

CITY           SKY/WX    TMP DP  RH WIND       PRES   REMARKS
AMES           CLOUDY    33  31  92 N5        29.83F WCI  29
ANKENY *       CLOUDY    34  30  86 NW7       29.85S WCI  28
BOONE *        CLOUDY    34  30  86 CALM      29.82S
CHARITON *     CLOUDY    32  30  93 NW6       29.84F WCI  26
DES MOINES     CLOUDY    35  28  75 NW5       29.84F WCI  31
GRINNELL*      CLOUDY    32  31  94 N5        29.84F WCI  27
KNOXVILLE *    CLOUDY    32  30  93 NW5       29.83F WCI  27
MARSHALLTOWN   CLOUDY    32  30  92 NW6       29.82F WCI  26
NEWTON *       CLOUDY    32  30  93 N7        29.82F WCI  26
PELLA *        CLOUDY    33  31  91 N6        29.85F WCI  27
PERRY *        CLOUDY    35  31  87 W5        29.84S WCI  30
$$

IAZ004>006-015-016-023>025-035-036-232200-
   NORTH CENTRAL IOWA

CITY           SKY/WX    TMP DP  RH WIND       PRES   REMARKS
ALGONA *       CLOUDY    34  30  86 N5        29.82S WCI  30
CLARION *      CLOUDY    32  32 100 N5        29.83S WCI  27
ESTHERVILLE    CLOUDY    31  30  96 N3        29.81S
FORT DODGE *   CLOUDY    34  27  75 CALM      29.83S
MASON CITY     CLOUDY    32  28  85 NW7       29.83S WCI  26
FOREST CITY *  CLOUDY    32  32 100 N6        29.82S WCI  26
WEBSTER CITY * CLOUDY    34 N/A N/A N7        29.80F WCI  28
IOWA FALLS *   CLOUDY    33  31  90 CALM      29.82F
$$

IAZ007>011-017>019-026>030-037>042-050>054-066-232200-
   NORTHEAST IOWA

CITY           SKY/WX    TMP DP  RH WIND       PRES   REMARKS
CEDAR RAPIDS   CLOUDY    33  30  88 W10       29.82R WCI  25
CHARLES CITY * CLOUDY    34  32  93 NW7       29.82R WCI  28
CLINTON *      CLOUDY    38  36  92 NW12      29.81R WCI  30
DECORAH *      MIX PCPN  34  30  86 NW6       29.79F WCI  29
DUBUQUE        CLOUDY    37  34  89 NW7       29.79S WCI  32
MONTICELLO *   CLOUDY    37  34  87 NW8       29.80F WCI  31
OELWEIN *      CLOUDY    34  32  93 W9        29.81F WCI  26
WATERLOO       CLOUDY    34  28  79 W9        29.83R WCI  27
$$

IAZ064-065-067-068-078-232200-
   EAST CENTRAL IOWA

CITY           SKY/WX    TMP DP  RH WIND       PRES   REMARKS
DAVENPORT      CLOUDY    38  35  89 NW10      29.80F WCI  31
IOWA CITY      CLOUDY    38  31  76 W10       29.84S WCI  31
MUSCATINE *    CLOUDY    39  34  81 W12       29.83S WCI  32
QUAD CITIES    CLOUDY    40  34  79 W8        29.80S WCI  34
$$

IAZ062-063-075>077-085>089-095>099-232200-
   SOUTHEAST IOWA

CITY           SKY/WX    TMP DP  RH WIND       PRES   REMARKS
BURLINGTON     CLOUDY    38  33  82 W7        29.82S WCI  33
FAIRFIELD *    CLOUDY    34  30  86 W7        29.84S WCI  28
FORT MADISON * CLOUDY    37  34  87 NW6       29.84S WCI  33
KEOKUK *       CLOUDY    37 N/A N/A NW7       29.83S WCI  32
OSKALOOSA *    CLOUDY    32  31  93 NW6       29.84F WCI  27
CENTERVILLE *  CLOUDY    32  32 100 CALM      29.85F
OTTUMWA        CLOUDY    34  28  79 NW5       29.83F WCI  30
WASHINGTON *   CLOUDY    36  32  87 W9        29.85S WCI  29
$$

ABBREVIATIONS USED IN REMARKS
   TC - TEMPERATURES IN CELSIUS
  WCI - WIND CHILL INDEX
   HX - HEAT INDEX
  VSB - VISIBILITY
$$





USA.gov is the U.S. government's official web portal to all federal, state and local government web resources and services.